RH
59 34 26 33 69 78 80 83 86 78 79 83 81 90 89 85 90 99 86 88 88 92 89 86 75 84 92
48 43 42 27 29 52 83 88 80 94 92 80 95 92 93 91 86 85 86 100 97 98 100 98 84 82 94
74 59 45 32 60 68 59 63 81 97 91 99 95 77 82 74 79 83 91 100 89 81 99 100 97 83 100
98 98 90 65 86 87 84 79 82 87 97 99 89 88 75 68 78 80 93 99 92 97 87 100 100 96 99
98 100 98 99 100 88 96 88 91 97 97 92 84 80 95 90 78 79 78 89 89 86 79 90 95 100 100
97 96 98 92 98 100 99 100 98 100 97 97 99 97 74 67 68 74 73 70 83 85 85 98 100 100 100
95 96 100 99 99 96 100 100 100 91 96 98 100 98 98 93 76 82 84 84 86 83 100 100 100 100 100
100 98 99 98 100 95 100 98 98 99 100 100 98 100 99 98 89 79 81 90 91 100 100 100 100 100 100
100 100 99 90 97 99 96 99 99 98 84 100 98 99 99 98 90 90 92 100 100 100 100 100 100 100 100
90 79 83 92 99 97 96 98 99 99 94 100 99 100 98 99 98 100 100 100 100 100 100 100 100 100 99
86 93 93 98 96 96 97 97 97 99 98 99 99 100 100 99 99 100 100 100 100 99 100 100 99 98 97
98 98 100 100 97 95 96 97 97 98 94 95 97 99 100 99 99 99 99 99 99 98 99 98 98 97 97
100 100 99 95 96 90 92 93 97 97 95 93 98 99 98 98 97 97 98 98 98 98 98 98 98 98 97
98 100 92 98 99 95 98 96 96 96 96 96 97 98 97 98 98 97 97 96 98 98 97 98 100 100 98
100 97 94 99 96 95 97 97 96 96 96 96 97 97 97 97 96 97 97 97 97 95 99 97 99 100 100
97 96 98 98 98 96 96 96 96 96 96 96 95 88 86 94 97 97 91 39 98 94 85 90 92 86 68
96 96 96 97 97 96 96 96 96 96 96 94 75 59 28 43 71 39 26 30 56 64 43 28 25 31 40
Wind_Speed
43 49 48 45 42 41 44 45 44 41 41 40 41 40 37 37 38 45 53 57 55 50 53 49 49 50 49
51 49 46 45 44 43 41 39 44 40 41 40 37 34 33 32 34 36 39 41 47 47 49 53 50 49 52
43 46 49 48 40 41 43 43 38 36 40 35 37 34 32 34 34 34 38 36 38 42 43 52 57 51 52
35 39 41 42 37 39 45 42 44 38 37 35 35 29 35 35 34 35 30 32 38 43 52 46 56 57 59
40 38 38 38 39 41 41 43 44 40 41 37 31 32 29 33 32 30 31 33 32 37 45 45 42 64 58
41 43 44 44 42 40 34 42 44 36 31 39 37 38 43 44 40 39 34 35 36 36 30 41 50 60 59
44 45 42 40 38 44 38 41 50 50 44 50 40 41 37 39 37 34 35 35 29 32 33 41 56 58 59
41 44 41 34 40 43 47 48 43 39 36 41 35 36 33 41 37 33 35 30 24 36 43 52 52 52 46
37 38 37 44 37 35 38 38 38 39 39 39 41 41 40 38 34 31 25 24 34 42 46 42 38 34 33
46 42 39 34 32 32 33 34 33 31 17 17 23 24 17 17 15 17 23 31 33 34 34 30 30 31 29
38 38 37 37 36 36 34 33 35 33 31 23 25 28 25 17 19 25 29 31 32 31 28 27 29 31 31
37 39 37 38 38 39 33 28 26 28 29 27 31 26 28 22 16 27 27 29 27 25 27 26 25 23 27
41 41 38 36 40 41 32 26 22 23 25 25 22 24 24 24 23 31 28 25 26 29 29 28 28 24 25
42 40 38 37 40 38 30 24 19 15 15 14 10 13 17 21 22 30 28 19 29 28 27 27 26 25 23
43 41 41 36 40 32 25 18 15 14 4 3 7 9 7 14 23 31 31 21 28 28 28 27 26 25 24
43 40 41 37 35 26 19 13 9 3 2 7 12 14 14 13 18 21 20 15 30 24 23 23 24 24 23
42 40 38 34 24 19 14 7 1 3 7 7 4 6 8 10 15 14 12 15 23 21 19 19 18 17 17
Wind_Direction
302 307 308 312 309 301 297 297 295 291 292 287 287 288 285 282 276 262 251 258 254 254 250 245 242 239 235
308 311 310 312 310 308 309 303 294 292 293 293 285 288 290 284 277 272 274 270 252 248 247 246 241 237 232
303 308 309 312 312 307 306 305 299 295 291 286 285 297 284 285 284 283 273 265 265 266 257 245 237 234 227
303 302 305 308 304 307 309 306 304 302 291 286 288 288 287 281 284 283 280 267 270 259 246 255 241 231 223
306 305 303 303 301 306 297 300 299 301 303 301 296 283 274 277 285 283 290 276 267 265 256 262 246 218 215
302 302 298 297 296 298 304 304 299 300 296 289 288 282 279 280 285 287 284 285 269 267 259 244 234 210 207
294 292 293 296 294 310 299 295 293 290 288 286 287 280 286 289 289 286 285 278 271 266 253 223 207 203 196
304 299 292 299 308 301 294 296 297 298 288 275 285 283 282 290 292 287 285 271 259 242 218 205 204 195 188
307 307 308 305 304 299 303 302 302 302 291 283 281 283 287 291 287 292 277 251 222 210 197 190 184 188 193
313 310 308 314 314 311 310 301 302 305 295 307 292 289 290 289 277 198 198 193 186 178 182 186 192 186 180
313 318 318 315 315 320 312 305 302 290 293 294 289 290 274 266 195 185 182 178 177 174 181 188 179 178 170
321 316 316 317 324 323 317 313 303 295 298 294 284 273 259 237 203 191 188 185 184 175 169 169 170 175 181
318 313 322 325 326 326 323 317 310 299 300 302 287 259 249 237 211 189 180 182 181 175 166 162 169 186 183
318 322 329 326 321 325 322 319 311 303 307 310 275 246 243 228 219 184 175 161 170 170 170 173 179 186 186
326 328 330 323 321 326 323 318 302 298 312 80 111 111 144 178 172 169 168 161 169 176 181 183 189 194 197
332 331 328 319 325 326 325 322 300 282 111 111 105 97 94 101 152 156 162 173 180 184 186 186 190 197 203
334 332 333 326 330 334 336 325 291 130 107 93 97 144 138 110 143 151 151 154 168 168 178 185 186 186 189